OBJECT B

基本信息
目录编号:
100238
目录名称:
OBJECT B
国际标识:
2026-178B
轨道中心:
EARTH
物体状态:
在轨
发射日期:
2026-08-05 UTC
国别:
中国 (CN)
轨道信息
数据来源: 国际轨道数据 AOE轨道数据
星历时间: 2026-08-23T22:45:31+0800 2026-08-18T00:00:00+0800
半长轴: 7166.66km 7166.663km
偏心率: 0.0013394 0.0013452
轨道倾角: 98.550° 98.550°
近地点辐角: 230.132° 249.687°
升交点赤经: 309.711° 303.860°
平近点角: 129.869° 85.555°
近地点: 778.923km 778.885km
远地点: 798.123km 798.167km
周期: 100.632分钟 100.632分钟
每日圈数: 14.309604 14.309596
详细信息
发射场:
YSLA
轨道高度:
LEO
数据来源:
AOE Working Group
参考系:
TEME
时间系统:
UTC
历元类型:
SGP4
2D轨道图
3D轨道图
轨道高度分析图
轨道倾角分析图
轨道综合分析图
查看轨道综合分析图